CAPE
2099 2691 2874 2812 2603 2594 2635 2636 2604 2498 2447 2304 2007 1622 1396 1290 1349 1421 1395 1343 1256 1042 982 1091 1117 1153 1124 1169 1153 965 1110 1181 1183 1116 1019 1077 1059 1106 971 729 458 409 306 336 336 411 513 653 870 692 977 850 917 780 727 611 515 478 417 326 359 354 368 375 312 200 128 202 182 150 138 118 87 34 50 65 94 120 281 181 152 283 168 232 212
2398 2886 2973 2806 2654 2580 2684 2731 2655 2585 2511 2395 2086 1643 1393 1453 1508 1488 1398 1333 1266 937 794 1065 1098 1081 1072 1075 887 793 874 959 1121 1240 1132 1091 1057 1041 858 755 585 460 330 373 322 406 430 526 752 686 1012 723 724 591 564 695 570 550 457 291 443 391 401 371 339 260 102 147 200 185 232 193 164 98 67 24 70 121 174 166 284 202 183 129 337
2590 2865 2910 2792 2766 2806 2816 2802 2732 2556 2446 2415 2117 1648 1474 1647 1561 1512 1471 1358 1360 1261 933 1163 1100 1020 984 987 849 734 681 773 950 950 1160 1101 949 881 835 808 548 401 375 420 445 516 392 424 484 677 982 839 659 584 723 758 713 627 499 319 336 430 367 408 388 278 14 106 78 97 83 58 40 138 143 184 47 83 46 228 261 171 212 149 279
2724 2825 2892 2830 2882 2912 2878 2798 2672 2496 2397 2258 2112 1741 1621 1699 1619 1509 1520 1452 1403 1286 912 1079 1091 991 971 917 806 594 567 650 583 768 924 945 927 762 778 802 686 627 424 542 523 504 346 426 514 646 914 808 739 702 810 783 763 512 508 358 356 371 387 367 287 229 36 0 3 7 28 26 36 74 188 168 105 147 159 239 248 198 104 174 411
2766 2817 2922 2905 2901 2856 2746 2642 2532 2496 2395 2181 2058 1805 1726 1679 1650 1499 1517 1506 1297 1282 871 928 1004 825 891 804 771 731 602 609 798 798 776 774 772 628 723 878 762 923 807 625 766 511 379 427 497 710 970 809 704 756 858 800 656 472 484 291 301 316 290 250 215 134 83 0 0 2 4 1 8 23 101 55 66 87 168 45 29 142 215 275 389
2680 2865 2880 2804 2754 2753 2674 2581 2522 2476 2374 2190 2016 1671 1689 1700 1642 1526 1480 1442 1352 1268 956 771 850 865 892 748 708 658 432 629 820 864 854 759 627 627 642 800 958 859 950 874 745 554 532 556 602 734 959 794 632 612 833 812 680 625 486 568 354 303 321 326 340 332 168 33 0 0 0 18 0 21 47 10 44 86 72 124 205 226 218 308 184
2417 2811 2931 2841 2765 2682 2637 2579 2510 2451 2333 2217 2022 1604 1624 1639 1573 1488 1464 1487 1528 1399 1015 714 779 828 747 855 746 605 437 535 855 852 863 729 631 595 612 725 794 940 912 898 650 634 575 579 784 949 945 732 593 545 670 740 691 636 512 557 442 375 398 410 409 451 273 286 164 139 151 2 0 0 3 12 46 132 195 216 105 215 115 169 22
2311 2702 2922 2926 2823 2682 2562 2496 2448 2376 2300 2163 1874 1605 1604 1510 1430 1556 1584 1481 1447 1312 1012 717 887 797 742 855 728 667 525 589 799 851 752 649 712 543 709 701 808 940 986 962 770 686 552 554 910 1066 891 866 790 696 647 601 645 624 556 542 476 454 477 415 428 351 253 367 428 486 86 0 0 0 0 7 9 56 179 166 172 161 27 223 22
2275 2695 2922 2864 2768 2711 2621 2570 2480 2373 2285 2108 1687 1610 1582 1542 1492 1673 1744 1628 1418 1246 960 861 871 796 816 772 700 759 724 687 802 827 686 695 771 484 753 808 845 914 962 951 982 721 771 798 908 1054 1023 1022 1004 850 720 662 593 705 614 592 541 488 460 432 361 318 327 334 490 446 5 0 0 0 0 0 9 104 176 157 173 145 192 257 0
2158 2422 2615 2831 2769 2678 2626 2549 2394 2264 2127 1983 1716 1700 1673 1661 1583 1629 1620 1506 1366 1140 969 863 832 914 877 818 854 823 761 800 798 778 890 930 933 624 742 812 906 858 812 818 848 760 901 1026 961 914 1021 1028 980 765 752 830 719 653 717 610 600 544 483 415 392 364 327 41 481 388 0 0 0 91 1 0 15 93 102 116 146 106 117 131 0
2017 2210 2310 2519 2518 2433 2350 2300 2144 1894 1931 1883 1811 1764 1716 1708 1643 1531 1494 1453 1365 1071 952 881 784 943 865 863 870 888 764 756 677 692 914 1026 1013 890 883 785 952 825 751 745 756 854 897 1070 1101 934 985 987 907 824 776 688 648 551 553 527 510 462 405 420 342 358 357 194 487 400 20 22 14 0 3 0 3 6 45 68 50 7 0 0 32
1772 1949 2159 2290 2305 2264 2182 2074 1720 1610 1361 1746 1630 1576 1684 1691 1638 1608 1551 1471 1343 1097 1044 925 925 995 992 936 878 836 859 789 708 666 856 1036 1038 967 1118 1331 966 881 763 744 718 770 1037 1044 1087 1080 996 951 750 894 716 790 606 595 570 499 425 498 512 458 464 440 466 332 439 489 140 6 0 1 0 0 0 0 17 26 8 11 0 0 0
1688 1720 1777 1916 2152 2118 2081 1817 1579 771 849 1511 1277 1374 1439 1688 1662 1597 1535 1374 1303 1175 1090 958 897 861 835 870 943 888 779 668 484 468 672 916 1025 1024 1173 1332 1008 862 607 661 709 891 998 986 1103 972 1087 940 744 775 754 441 578 544 538 410 418 503 594 606 558 507 572 525 430 468 465 0 0 0 0 0 0 0 0 0 0 0 0 2 3
1728 1748 1693 1697 1704 1686 1619 1551 1448 1254 957 943 1104 1382 1286 1462 1512 1570 1455 1329 1302 1199 1060 949 759 695 659 762 848 849 724 650 504 526 614 748 914 1081 1144 1126 993 924 713 814 761 872 1051 1072 987 854 703 802 955 808 692 444 574 591 589 452 520 602 603 555 554 505 505 524 459 436 454 506 407 176 0 0 0 0 0 0 0 0 0 1 0
1425 1645 1663 1520 1328 1072 984 1014 1047 802 1061 947 1238 1272 1110 1150 1273 1435 1496 1395 1264 1152 1058 987 921 820 720 799 829 804 946 781 685 694 609 659 890 1077 1265 1112 1110 955 865 902 810 794 853 837 711 701 659 655 559 443 507 586 593 607 518 602 717 650 603 439 441 386 373 442 466 470 130 538 548 554 416 367 0 0 0 0 0 0 0 0 2
1046 1117 1157 1208 1202 1108 1044 995 960 1119 1128 969 904 957 835 893 992 1110 1186 1247 1220 1260 1205 1127 1071 976 847 818 940 979 990 848 625 686 735 754 963 1110 1316 1176 1146 996 935 846 839 751 733 711 661 663 596 521 409 441 541 651 695 692 692 735 695 631 585 487 503 488 417 386 396 457 420 551 663 606 456 256 347 0 0 0 0 0 0 0 0
829 989 958 1001 972 922 835 982 1039 1010 1068 1032 969 764 717 706 877 885 876 781 1109 1106 1341 1383 1317 1220 1093 825 1034 1007 1023 853 690 708 829 722 954 1094 1368 1203 1127 997 950 909 851 722 756 706 602 550 578 462 446 486 646 708 770 815 820 748 695 698 625 493 548 599 587 571 596 630 656 720 677 508 337 0 72 0 0 0 0 0 0 0 0
530 623 623 675 632 776 803 827 990 1074 925 825 806 766 790 851 863 882 877 1049 1136 1330 1427 1425 1162 857 813 957 1112 1061 990 960 849 783 886 791 872 1058 1281 1189 1087 1015 962 882 764 663 669 610 561 570 528 470 590 630 663 712 762 818 883 839 721 667 634 684 662 630 653 657 654 582 519 544 638 705 741 692 615 458 247 146 126 0 0 0 0
700 576 558 632 711 596 618 863 864 840 766 738 733 708 728 678 901 865 941 1039 1310 1635 1582 1399 1129 812 626 886 1070 1082 920 864 904 818 1003 875 811 1028 1150 1062 1012 893 731 757 756 665 583 542 487 438 435 450 474 671 787 797 785 778 791 780 666 646 658 703 666 663 669 673 646 597 548 464 459 658 816 782 655 487 390 322 7 0 0 0 0
716 611 530 573 529 608 726 564 606 648 636 578 625 693 589 666 619 627 653 767 931 1248 1583 1593 1113 647 624 722 917 1010 913 740 957 776 883 805 717 922 965 910 812 748 704 744 719 538 518 361 412 428 395 308 282 411 707 716 660 515 669 584 554 635 670 714 698 675 619 671 687 654 719 653 530 552 675 689 700 574 365 304 75 0 0 0 0
351 460 463 512 473 449 503 597 586 603 608 606 731 739 744 656 766 696 763 991 1070 1160 1274 1463 1211 871 659 739 827 893 872 771 680 847 749 640 587 621 637 759 685 605 570 574 536 448 360 321 376 337 275 297 301 360 440 390 436 535 552 604 625 678 752 756 751 760 618 764 760 635 636 642 655 681 636 527 738 747 438 356 580 433 148 0 0
363 293 367 460 458 356 376 346 472 594 560 590 803 832 922 944 754 756 854 1004 1100 1081 1007 774 719 756 827 831 848 887 841 785 591 762 619 481 485 645 510 615 630 627 630 590 338 307 322 306 339 330 336 330 212 150 390 301 436 473 513 569 691 736 712 772 833 809 814 877 849 693 708 731 722 730 704 645 764 916 623 479 495 325 195 0 0
232 269 294 300 458 452 390 273 392 332 396 437 708 831 886 918 863 866 816 870 874 837 736 596 522 634 708 838 913 908 863 757 731 699 709 470 403 504 596 606 590 692 662 461 399 282 300 310 296 290 306 223 149 252 302 275 389 460 506 535 618 588 616 665 801 837 863 885 806 738 798 864 817 772 662 579 576 760 572 526 360 490 232 0 0
4 190 142 138 252 372 348 428 443 308 244 316 307 400 620 738 878 819 761 715 689 682 688 721 667 530 674 795 854 875 842 875 758 659 638 646 352 371 447 631 738 663 449 433 374 311 321 292 234 230 174 142 138 102 243 283 302 326 389 528 608 589 616 571 633 756 727 677 648 648 735 860 850 832 686 381 456 660 480 447 355 490 224 122 0
173 0 0 53 92 56 0 78 168 239 291 305 299 337 435 552 535 482 533 540 621 688 711 692 853 846 682 704 912 891 869 869 809 605 445 491 334 366 436 541 584 493 458 380 327 279 254 260 263 210 140 0 0 82 164 182 198 83 111 242 376 486 476 486 473 510 526 474 537 595 636 739 785 790 478 293 288 626 721 592 362 220 182 0 0
0 0 0 0 115 62 0 0 0 0 42 200 277 376 438 534 522 460 415 475 516 552 585 602 769 773 830 812 754 874 886 924 749 488 486 421 418 384 362 370 356 435 336 241 271 280 254 238 221 222 14 0 0 0 0 0 0 0 0 0 71 0 0 56 275 377 421 364 492 562 500 631 738 709 509 424 313 598 690 619 507 287 165 113 0
0 0 0 29 47 0 0 0 0 0 0 2 1 172 273 352 349 345 312 299 280 355 332 442 714 709 705 792 706 767 837 847 532 395 444 463 389 337 349 356 266 294 236 200 222 260 248 263 48 0 0 0 0 0 0 0 0 0 0 0 0 0 0 0 0 65 1 262 459 464 502 596 674 665 646 531 348 434 552 569 558 340 0 0 8
81 81 0 1 1 1 0 1 0 1 2 1 1 0 0 0 96 155 187 202 96 84 154 186 407 504 547 608 706 847 858 726 464 400 392 418 393 373 368 246 163 150 152 100 123 174 150 162 0 0 0 0 0 0 0 0 0 0 0 0 0 0 0 0 0 0 1 267 453 453 405 368 377 406 457 452 424 394 331 363 486 416 120 0 0
1 0 2 1 1 1 1 1 1 0 1 1 40 133 89 0 1 2 0 12 47 197 249 316 400 476 540 487 555 686 728 500 393 445 499 334 348 337 336 150 114 246 156 105 121 111 123 90 0 23 0 0 0 0 0 0 0 0 0 0 0 0 0 0 150 237 322 384 352 293 269 287 316 345 344 370 352 241 253 309 444 457 200 8 0
1 1 1 1 2 1 2 2 2 1 1 1 2 0 0 0 0 0 4 6 17 134 137 211 203 330 386 467 544 632 705 561 428 434 518 376 316 237 165 48 168 220 177 147 87 100 92 76 76 66 0 0 0 0 0 0 0 0 0 0 0 0 0 37 138 191 218 219 181 8 349 347 325 227 357 392 254 176 235 242 103 0 166 0 0
44 50 1 1 3 2 1 1 1 0 1 1 1 0 0 0 0 0 0 0 11 0 0 1 0 140 285 308 347 530 590 514 420 419 428 324 212 199 48 48 143 178 143 96 70 89 88 79 74 4 0 0 0 0 0 0 0 0 0 0 0 0 0 19 90 141 183 188 226 274 310 352 325 314 432 434 282 184 16 7 22 0 0 0 4
23 3 2 1 1 75 2 1 1 0 0 0 0 0 0 0 0 0 0 0 0 62 39 0 0 0 18 156 206 0 323 398 336 332 375 304 181 80 7 14 124 140 92 43 23 22 0 3 5 4 0 0 0 2 0 0 0 0 0 0 0 0 0 5 76 111 141 186 212 306 402 419 429 404 338 42 76 0 0 4 0 0 0 5 4
2 10 22 1 1 1 0 0 0 0 0 0 0 0 0 0 0 0 0 0 0 25 116 146 112 0 125 142 22 48 122 271 294 268 296 251 249 109 50 0 80 95 66 0 0 0 2 3 2 2 0 0 0 1 0 0 4 1 0 0 0 0 0 0 44 61 87 136 216 310 300 367 386 414 358 253 0 12 0 0 0 0 0 0 0
0 0 1 0 0 0 0 0 0 0 0 0 1 2 2 3 0 0 0 0 0 0 58 162 177 43 43 29 25 24 20 94 198 248 275 263 249 130 51 29 65 45 0 0 0 1 7 6 3 2 1 0 1 1 0 0 0 3 0 0 0 0 0 0 0 0 0 0 0 0 0 0 112 322 304 213 216 174 160 0 0 0 0 0 0
0 2 0 0 0 0 0 4 0 0 0 0 1 4 6 3 1 0 0 0 0 0 0 106 204 206 70 28 24 19 31 131 274 330 272 221 170 94 63 14 29 0 0 0 2 3 7 8 4 0 0 2 5 3 0 0 0 0 0 0 0 0 0 0 0 0 0 0 0 0 0 0 0 0 0 0 0 137 141 23 0 0 0 0 0
0 3 1 2 2 0 0 0 0 1 0 0 0 0 2 3 1 0 0 0 0 0 0 0 103 121 12 34 59 56 77 183 230 173 147 123 36 70 13 16 9 3 0 2 2 3 3 3 1 0 0 2 7 4 0 0 0 0 0 0 0 0 0 0 0 0 3 0 0 0 0 0 0 0 0 0 0 0 31 118 139 93 0 0 0
9 6 4 2 2 1 0 0 0 0 1 0 0 0 0 2 2 0 0 0 0 0 0 0 21 50 12 23 52 65 78 111 188 184 184 82 53 20 73 32 22 20 1 0 0 0 0 0 0 0 0 0 1 0 0 0 0 1 0 0 0 1 0 0 0 0 0 0 0 0 0 0 0 0 0 0 0 0 0 0 0 0 0 0 0
7 16 12 0 0 1 16 7 2 4 6 2 2 0 0 0 0 0 0 0 0 0 0 2 3 3 6 10 31 37 38 56 50 55 50 45 21 37 34 38 32 24 8 0 0 0 0 0 0 0 0 0 0 0 0 1 3 9 1 1 6 6 6 2 3 0 0 0 0 0 0 0 0 0 0 0 0 0 0 0 0 0 0 0 0
12 9 4 2 6 4 1 0 1 0 5 0 0 0 0 0 0 0 0 0 0 0 0 0 0 0 0 0 4 9 12 36 77 78 33 36 26 24 19 8 0 11 8 0 0 0 0 0 0 0 0 0 0 0 0 7 14 8 2 3 9 4 4 46 54 21 0 25 46 71 85 74 53 0 0 0 0 0 0 0 0 0 0 0 0
5 3 2 5 10 8 11 6 0 0 0 0 0 0 0 0 0 0 0 0 0 0 0 0 0 0 0 1 0 0 3 14 20 53 44 30 26 17 18 2 1 6 6 6 7 1 0 0 0 0 0 0 0 0 0 7 16 18 14 10 10 2 14 66 83 69 54 34 46 58 62 58 43 36 0 0 0 0 0 0 0 0 0 0 0
4 4 2 0 11 9 5 5 15 7 3 3 2 0 0 0 0 0 1 0 0 0 0 0 0 0 0 0 0 1 0 0 12 14 23 34 24 17 17 14 12 13 16 14 14 12 11 6 3 0 0 0 0 0 0 1 6 5 7 6 4 0 29 68 78 91 76 54 66 61 39 13 0 0 0 0 0 0 0 0 0 0 0 0 0
9 11 8 4 2 0 0 4 9 6 1 2 0 0 0 3 4 0 0 2 0 0 0 0 0 0 0 0 0 0 1 1 1 7 6 4 6 4 10 10 18 20 17 14 9 12 15 9 5 2 0 1 1 3 3 1 1 0 26 2 5 0 14 46 52 48 50 41 0 0 0 0 0 0 0 0 0 0 0 0 0 0 0 0 0
3 1 3 4 3 0 0 0 1 3 2 0 0 0 0 3 6 8 7 6 4 1 0 0 0 0 0 0 0 0 0 2 0 0 1 1 0 2 5 6 2 0 1 4 3 2 0 0 0 0 0 1 16 32 39 44 39 43 40 38 10 0 0 0 0 0 0 0 0 0 0 0 0 0 0 0 0 0 0 0 0 0 0 0 0
1 0 0 0 1 5 7 9 6 1 0 0 0 0 2 4 5 6 6 3 2 0 0 0 0 0 0 0 0 0 0 0 0 0 0 0 0 0 0 0 0 0 2 0 0 0 2 6 13 11 11 19 18 25 22 28 38 47 40 49 29 23 17 10 4 4 7 7 10 2 6 1 0 0 0 0 0 0 0 0 0 0 0 0 0
5 4 6 7 7 3 2 12 4 0 0 0 0 0 0 1 4 6 5 4 1 1 0 0 0 0 0 0 0 0 0 0 0 0 0 0 0 0 0 0 1 0 0 2 0 0 0 0 0 0 0 0 0 0 0 6 21 20 22 16 5 4 13 16 16 12 10 11 5 2 0 0 0 0 0 0 0 0 0 0 0 0 0 0 0
0 0 0 2 1 0 0 0 1 1 1 1 0 0 0 2 3 3 3 2 0 1 4 1 0 0 0 0 0 0 0 0 0 0 0 0 0 0 0 0 0 1 2 0 0 0 0 0 0 0 0 0 0 0 0 0 0 0 1 1 7 12 11 7 4 6 3 1 0 0 0 0 0 0 0 0 0 0 0 0 0 0 0 0 0
0 0 0 0 0 0 0 4 8 12 7 4 2 0 0 0 0 0 0 1 3 3 4 3 2 0 0 0 0 0 0 0 0 0 0 0 0 0 0 1 0 0 1 0 0 0 0 0 0 0 0 0 0 0 0 0 0 0 0 0 0 0 0 0 0 0 0 0 0 0 0 0 0 0 0 0 0 0 0 0 0 0 0 0 0
2 1 0 0 0 0 0 0 0 0 0 0 1 2 2 1 0 0 1 2 1 0 1 2 0 0 0 0 0 0 0 0 0 0 0 0 0 0 0 0 0 0 7 6 3 2 2 1 0 0 0 0 0 0 0 0 0 0 0 0 0 0 0 0 0 0 0 0 0 0 0 0 0 0 0 0 0 0 0 0 0 0 0 0 0
6 4 2 0 0 0 0 0 0 0 0 0 0 0 0 0 0 0 0 0 0 0 0 0 0 0 0 0 0 0 0 0 0 0 0 0 0 0 0 0 0 0 0 0 0 0 0 0 0 0 0 0 0 0 0 0 0 0 0 0 0 0 0 0 0 0 0 0 0 0 0 0 0 0 0 0 0 0 0 0 0 0 0 0 0
7 13 10 5 2 0 0 0 0 0 0 0 0 0 0 0 0 0 0 0 0 0 0 0 0 0 0 0 0 0 0 0 0 0 0 0 0 0 0 0 0 0 0 0 0 0 0 0 0 0 0 0 0 0 0 0 0 0 0 0 0 0 0 0 0 0 0 0 0 0 0 0 0 0 0 0 0 0 0 0 0 0 0 0 0
0 2 2 2 5 6 2 0 0 0 0 0 0 0 0 0 0 0 0 0 0 0 0 0 0 0 0 0 0 0 0 0 0 0 0 0 0 0 0 0 0 0 0 0 0 0 0 0 0 0 0 0 0 0 0 0 0 0 0 0 0 0 0 0 0 0 0 0 0 0 0 0 0 0 0 0 0 0 0 0 0 0 0 0 0
Wind_Speed
18 19 22 22 23 23 22 20 21 23 26 29 30 29 30 31 30 30 30 29 30 30 23 25 25 23 23 23 21 23 24 25 24 20 21 21 19 18 17 16 15 15 15 16 15 15 16 16 17 16 15 14 15 12 11 13 15 15 14 11 11 10 6 6 7 9 11 9 9 9 9 7 nan nan nan nan nan 3 2 1 1 3 6 6 5
21 21 24 25 25 25 23 21 22 25 25 29 30 30 31 31 30 31 31 29 32 34 27 22 23 22 21 24 26 29 28 27 24 21 21 22 18 16 15 14 13 13 13 14 14 15 17 16 16 14 15 14 14 12 12 14 16 15 13 14 9 10 6 5 7 10 7 8 9 8 8 8 8 nan nan nan nan 3 3 1 2 2 3 5 5
23 22 24 27 29 27 24 21 20 23 27 28 30 32 33 31 31 32 31 30 30 30 27 24 24 24 21 22 25 24 27 27 25 22 22 20 17 15 14 13 12 11 10 12 14 15 18 17 15 15 16 15 16 13 13 14 14 14 12 13 10 7 8 6 6 5 nan 8 nan nan nan nan nan 7 6 6 nan nan nan 3 3 3 2 5 4
28 26 26 27 28 28 27 23 21 23 27 28 30 33 34 32 32 32 31 30 30 28 27 26 26 24 19 21 22 24 26 26 25 21 19 20 17 15 15 13 12 11 12 14 15 16 17 17 16 16 16 15 15 13 13 14 14 14 14 10 13 12 8 5 2 6 nan nan nan nan nan nan nan nan 6 7 6 5 4 5 4 4 3 5 3
30 27 27 29 29 29 29 26 24 24 26 28 29 32 31 33 32 32 30 29 28 28 28 29 30 24 19 21 20 22 25 24 22 18 17 18 17 16 13 14 13 13 13 14 15 15 16 17 16 16 17 15 16 14 13 13 11 11 11 9 10 11 10 8 3 6 nan nan nan nan nan nan nan nan 6 nan nan nan 6 nan nan 3 1 2 5
24 28 30 30 28 25 24 25 24 24 26 28 29 30 31 31 32 30 28 27 27 28 32 32 29 26 23 20 15 16 16 16 15 14 16 17 15 16 16 14 15 14 13 14 15 15 15 16 16 18 17 16 15 14 14 14 13 11 9 9 9 8 12 10 8 6 5 nan nan nan nan nan nan nan nan nan nan nan nan 4 3 3 4 4 4
29 27 27 28 27 25 22 21 20 22 24 27 28 30 32 32 32 30 28 25 24 27 32 32 28 24 24 20 15 16 17 15 15 16 18 19 20 17 14 14 14 14 14 15 14 14 16 17 17 18 16 16 15 16 14 12 11 11 11 10 9 10 11 11 9 9 7 6 7 9 9 nan nan nan nan nan nan 6 6 5 6 6 6 4 nan
28 26 25 24 26 25 21 16 16 18 21 25 27 30 34 33 31 29 27 25 23 26 30 29 26 22 23 20 14 14 14 14 16 18 19 20 18 16 14 13 13 14 14 14 14 15 17 17 17 17 17 16 16 15 14 13 14 14 12 10 11 11 11 12 10 9 10 8 10 10 nan nan nan nan nan nan nan nan 6 8 8 7 nan 5 nan
23 22 22 24 26 27 22 19 19 20 18 24 24 27 31 33 31 29 28 27 25 27 28 25 23 21 23 23 15 9 9 12 17 19 19 18 17 15 13 13 14 15 15 15 15 16 17 14 16 16 17 16 16 16 16 15 13 14 14 13 12 11 11 12 12 9 10 10 12 12 nan nan nan nan nan nan nan 8 9 7 7 8 9 8 nan
28 30 30 30 30 27 23 22 20 19 21 25 26 25 27 29 32 33 30 27 27 29 28 25 22 21 22 21 17 13 11 12 12 16 17 17 16 12 12 13 14 16 16 16 16 16 15 13 15 15 16 17 17 16 16 15 15 15 13 12 13 13 13 13 11 10 10 nan 11 12 nan nan nan nan nan nan nan nan 8 6 7 7 6 6 nan
31 33 34 33 33 32 30 29 24 22 21 27 27 25 23 24 27 30 28 24 25 27 28 27 25 21 19 20 18 17 14 12 11 11 14 16 15 13 12 12 14 15 16 16 16 16 15 15 16 17 17 17 17 17 17 14 14 14 13 13 14 14 14 14 13 12 11 11 11 11 nan nan nan nan nan nan nan nan nan nan nan nan nan nan nan
33 34 35 36 40 39 36 35 33 31 32 28 29 27 24 24 27 28 25 22 23 25 26 27 26 23 19 19 18 18 17 12 10 11 13 13 14 13 13 18 19 19 16 17 17 17 17 17 17 18 16 17 16 18 17 16 15 14 14 15 14 15 14 14 14 12 10 10 10 10 9 nan nan nan nan nan nan nan nan nan nan nan nan nan nan
36 35 36 38 40 40 39 37 35 35 41 41 32 29 21 22 25 27 25 24 25 26 25 24 24 22 19 18 18 17 15 11 11 10 11 11 12 12 16 15 15 13 15 17 18 17 18 18 19 19 17 17 17 18 16 17 16 15 15 16 16 15 13 13 13 11 10 10 9 9 10 nan nan nan nan nan nan nan nan nan nan nan nan nan nan
40 39 40 41 41 41 40 42 41 40 45 48 35 30 27 26 23 23 24 24 27 28 27 24 21 21 18 17 19 18 13 12 12 12 10 10 11 11 14 14 12 11 15 17 17 17 17 17 16 15 16 17 18 17 17 16 17 17 18 17 16 14 14 14 12 12 11 10 11 11 10 11 12 15 nan nan nan nan nan nan nan nan nan nan nan
42 43 43 44 43 43 41 43 45 40 42 40 29 24 28 30 27 24 25 25 27 29 30 27 24 22 19 18 20 22 19 15 14 15 13 11 11 13 15 16 14 14 16 18 18 17 17 18 18 18 19 21 21 20 18 18 19 20 19 18 16 15 14 14 14 13 13 13 11 11 12 12 13 14 16 15 nan nan nan nan nan nan nan nan nan
40 41 42 44 43 42 41 40 40 41 39 32 25 23 28 31 29 31 33 36 35 33 34 34 32 27 21 19 21 25 21 14 9 12 14 13 11 14 17 17 17 18 18 19 18 19 19 19 19 20 22 22 22 21 21 21 21 21 20 20 17 16 15 14 14 14 13 13 12 13 15 13 13 14 14 15 14 nan nan nan nan nan nan nan nan
36 36 36 36 37 39 37 35 33 33 35 32 28 26 26 29 30 33 38 37 31 33 34 38 36 29 23 21 20 22 20 13 11 9 12 14 13 14 17 17 19 17 18 19 20 20 20 20 20 21 22 23 23 23 24 24 23 22 21 20 19 17 16 14 15 15 14 14 15 14 13 13 13 14 14 nan nan nan nan nan nan nan nan nan nan
33 33 33 33 33 33 33 34 35 36 35 32 30 24 24 27 28 27 30 30 29 29 32 31 24 15 13 16 19 19 17 15 11 7 11 15 15 15 17 19 18 19 21 21 21 20 21 21 22 22 23 24 24 25 26 27 26 25 22 20 20 19 17 16 15 16 16 16 16 16 14 13 14 15 13 13 13 11 11 10 10 nan nan nan nan
32 32 32 32 31 29 28 30 32 34 34 29 28 22 22 22 22 21 19 25 25 23 21 19 14 12 12 12 14 17 17 16 13 7 6 13 16 18 19 18 20 22 24 23 21 21 22 22 22 23 24 25 26 26 28 28 26 24 21 21 20 18 16 15 15 16 17 18 16 16 14 13 14 14 14 13 13 11 10 10 nan nan nan nan nan
30 31 32 30 28 25 22 20 22 27 30 31 27 19 15 15 13 12 15 18 17 18 17 19 23 20 16 14 14 16 18 18 12 5 5 11 14 20 21 22 21 24 26 24 22 22 23 23 23 24 25 27 27 27 27 27 26 23 21 21 18 16 16 15 15 16 18 18 16 16 14 13 15 16 14 13 13 11 11 12 nan nan nan nan nan
26 26 27 27 25 22 18 17 18 20 23 25 23 18 12 9 6 7 12 11 9 15 20 23 22 17 15 13 11 14 16 16 11 7 10 21 27 22 19 23 25 25 26 24 23 22 22 23 24 25 26 27 28 27 26 26 25 23 22 21 19 18 17 16 17 16 17 18 17 16 15 13 16 17 14 14 13 12 12 13 14 15 14 nan nan
21 20 19 21 22 22 19 18 18 19 18 19 17 15 14 13 7 6 6 5 6 11 17 19 19 14 12 14 12 13 15 16 15 19 28 21 18 16 16 24 26 26 25 23 22 22 22 23 25 26 27 27 28 26 25 25 24 22 20 20 20 19 19 17 17 17 17 18 18 17 15 14 15 16 15 13 12 13 12 13 13 13 11 nan nan
18 17 18 19 20 21 22 23 21 19 17 17 15 15 13 11 10 7 5 2 2 7 12 16 17 13 10 12 13 12 13 13 16 25 25 16 17 17 17 22 27 25 22 22 22 21 21 23 25 26 27 27 26 26 23 22 22 21 20 19 19 19 19 18 17 16 17 19 19 18 16 16 16 16 14 12 13 11 14 12 14 13 11 nan nan
nan 18 21 22 22 23 25 26 24 20 19 19 18 18 15 14 12 10 11 12 10 9 8 10 13 12 10 11 12 11 9 12 17 26 24 17 22 20 19 23 28 26 21 21 22 22 22 23 25 26 26 26 25 24 22 21 20 21 20 19 20 19 18 17 17 18 20 21 19 19 17 17 17 16 15 13 12 12 12 12 12 14 14 13 nan
23 nan nan nan nan nan nan nan 24 22 20 19 19 20 18 17 16 13 13 14 13 14 14 10 9 10 11 12 14 12 12 16 21 27 25 20 21 23 24 26 33 31 25 23 23 23 22 23 25 25 26 nan nan nan 23 21 21 nan 21 20 20 19 17 18 18 20 21 21 21 19 19 19 19 17 16 15 14 14 13 14 13 15 15 nan nan
nan nan nan nan 24 nan nan nan nan nan nan 19 19 19 17 15 15 14 14 16 17 17 16 10 8 8 13 14 14 16 15 15 22 25 25 22 21 24 27 30 33 34 31 28 27 25 24 24 25 25 nan nan nan nan nan nan nan nan nan nan nan nan nan nan 21 23 23 23 22 21 20 20 20 19 17 17 17 15 15 15 15 17 17 16 nan
nan nan nan nan nan nan nan nan nan nan nan nan nan 20 18 16 14 15 16 17 18 17 13 13 12 11 16 17 19 20 15 16 22 24 26 25 23 27 31 32 29 30 31 30 28 27 27 27 nan nan nan nan nan nan nan nan nan nan nan nan nan nan nan nan nan nan nan 24 24 23 22 21 20 20 20 19 19 18 17 15 17 20 nan nan nan
nan nan nan nan nan nan nan nan nan nan nan nan nan nan nan nan nan 17 18 19 nan nan 12 12 13 14 22 21 20 19 19 23 23 24 27 28 27 26 29 30 29 27 30 30 30 31 31 30 nan nan nan nan nan nan nan nan nan nan nan nan nan nan nan nan nan nan nan 26 24 23 22 22 22 22 22 21 21 20 20 18 19 20 21 nan nan
nan nan nan nan nan nan nan nan nan nan nan nan nan 23 nan nan nan nan nan nan nan 20 21 18 16 14 17 23 22 21 21 25 25 26 26 27 27 28 28 27 25 28 32 35 33 34 34 nan nan nan nan nan nan nan nan nan nan nan nan nan nan nan nan nan 26 28 28 27 25 25 26 24 24 24 23 22 21 22 23 21 19 22 20 nan nan
nan nan nan nan nan nan nan nan nan nan nan nan nan nan nan nan nan nan nan nan nan 22 22 24 22 15 15 20 23 22 23 24 27 27 27 28 27 29 28 nan 26 32 35 38 nan 36 nan nan nan nan nan nan nan nan nan nan nan nan nan nan nan nan nan nan 28 28 29 27 26 nan 28 29 27 29 28 26 24 24 24 24 22 nan 23 nan nan
nan nan nan nan nan nan nan nan nan nan nan nan nan nan nan nan nan nan nan nan nan nan nan nan nan 22 17 18 21 23 26 27 26 28 28 30 28 30 nan nan 29 31 34 nan nan nan nan nan nan nan nan nan nan nan nan nan nan nan nan nan nan nan nan nan nan 29 28 29 32 30 28 28 28 28 28 31 32 32 nan nan nan nan nan nan nan
nan nan nan nan nan nan nan nan nan nan nan nan nan nan nan nan nan nan nan nan nan nan nan nan nan nan nan 19 22 nan 26 28 29 31 32 30 30 nan nan nan 32 31 nan nan nan nan nan nan nan nan nan nan nan nan nan nan nan nan nan nan nan nan nan nan nan 28 29 31 30 29 28 26 26 26 25 nan nan nan nan nan nan nan nan nan nan
nan nan nan nan nan nan nan nan nan nan nan nan nan nan nan nan nan nan nan nan nan nan 24 25 26 nan 27 27 nan nan 26 27 30 32 34 31 32 34 nan nan nan nan nan nan nan nan nan nan nan nan nan nan nan nan nan nan nan nan nan nan nan nan nan nan nan nan nan 29 29 30 29 27 25 29 26 25 nan nan nan nan nan nan nan nan nan
nan nan nan nan nan nan nan nan nan nan nan nan nan nan nan nan nan nan nan nan nan nan nan 24 26 nan nan nan nan nan nan nan 30 33 35 34 35 36 nan nan nan nan nan nan nan nan nan nan nan nan nan nan nan nan nan nan nan nan nan nan nan nan nan nan nan nan nan nan nan nan nan nan 27 28 27 27 28 30 33 nan nan nan nan nan nan
nan nan nan nan nan nan nan nan nan nan nan nan nan nan nan nan nan nan nan nan nan nan nan 25 26 26 nan nan nan nan nan 27 31 35 36 36 38 nan nan nan nan nan nan nan nan nan nan nan nan nan nan nan nan nan nan nan nan nan nan nan nan nan nan nan nan nan nan nan nan nan nan nan nan nan nan nan nan 35 36 nan nan nan nan nan nan
nan nan nan nan nan nan nan nan nan nan nan nan nan nan nan nan nan nan nan nan nan nan nan nan 26 26 nan nan nan nan nan 25 34 39 38 36 nan nan nan nan nan nan nan nan nan nan nan nan nan nan nan nan nan nan nan nan nan nan nan nan nan nan nan nan nan nan nan nan nan nan nan nan nan nan nan nan nan nan nan 39 39 nan nan nan nan
nan nan nan nan nan nan nan nan nan nan nan nan nan nan nan nan nan nan nan nan nan nan nan nan nan nan nan nan nan nan nan 24 31 36 36 nan nan nan nan nan nan nan nan nan nan nan nan nan nan nan nan nan nan nan nan nan nan nan nan nan nan nan nan nan nan nan nan nan nan nan nan nan nan nan nan nan nan nan nan nan nan nan nan nan nan
nan nan nan nan nan nan nan nan nan nan nan nan nan nan nan nan nan nan nan nan nan nan nan nan nan nan nan nan nan nan nan nan nan nan nan nan nan nan nan nan nan nan nan nan nan nan nan nan nan nan nan nan nan nan nan nan nan nan nan nan nan nan nan nan nan nan nan nan nan nan nan nan nan nan nan nan nan nan nan nan nan nan nan nan nan
nan nan nan nan nan nan nan nan nan nan nan nan nan nan nan nan nan nan nan nan nan nan nan nan nan nan nan nan nan nan nan nan nan nan nan nan nan nan nan nan nan nan nan nan nan nan nan nan nan nan nan nan nan nan nan nan nan nan nan nan nan nan nan nan nan nan nan nan nan nan nan nan nan nan nan nan nan nan nan nan nan nan nan nan nan
nan nan nan nan nan nan nan nan nan nan nan nan nan nan nan nan nan nan nan nan nan nan nan nan nan nan nan nan nan nan nan nan nan nan nan nan nan nan nan nan nan nan nan nan nan nan nan nan nan nan nan nan nan nan nan nan nan nan nan nan nan nan nan nan nan nan nan nan nan nan nan nan nan nan nan nan nan nan nan nan nan nan nan nan nan
nan nan nan nan nan nan nan nan nan nan nan nan nan nan nan nan nan nan nan nan nan nan nan nan nan nan nan nan nan nan nan nan nan nan nan nan nan nan nan nan nan nan nan nan nan nan nan nan nan nan nan nan nan nan nan nan nan nan nan nan nan nan nan nan nan nan nan nan nan nan nan nan nan nan nan nan nan nan nan nan nan nan nan nan nan
nan nan nan nan nan nan nan nan nan nan nan nan nan nan nan nan nan nan nan nan nan nan nan nan nan nan nan nan nan nan nan nan nan nan nan nan nan nan nan nan nan nan nan nan nan nan nan nan nan nan nan nan nan nan nan nan nan nan nan nan nan nan nan nan nan nan nan nan nan nan nan nan nan nan nan nan nan nan nan nan nan nan nan nan nan
nan nan nan nan nan nan nan nan nan nan nan nan nan nan nan nan nan nan nan nan nan nan nan nan nan nan nan nan nan nan nan nan nan nan nan nan nan nan nan nan nan nan nan nan nan nan nan nan nan nan nan nan nan nan nan nan nan nan nan nan nan nan nan nan nan nan nan nan nan nan nan nan nan nan nan nan nan nan nan nan nan nan nan nan nan
nan nan nan nan nan nan nan nan nan nan nan nan nan nan nan nan nan nan nan nan nan nan nan nan nan nan nan nan nan nan nan nan nan nan nan nan nan nan nan nan nan nan nan nan nan nan nan nan nan nan nan nan nan nan nan nan nan nan nan nan nan nan nan nan nan nan nan nan nan nan nan nan nan nan nan nan nan nan nan nan nan nan nan nan nan
nan nan nan nan nan nan nan nan nan nan nan nan nan nan nan nan nan nan nan nan nan nan nan nan nan nan nan nan nan nan nan nan nan nan nan nan nan nan nan nan nan nan nan nan nan nan nan nan nan nan nan nan nan nan nan nan nan nan nan nan nan nan nan nan nan nan nan nan nan nan nan nan nan nan nan nan nan nan nan nan nan nan nan nan nan
nan nan nan nan nan nan nan nan nan nan nan nan nan nan nan nan nan nan nan nan nan nan nan nan nan nan nan nan nan nan nan nan nan nan nan nan nan nan nan nan nan nan nan nan nan nan nan nan nan nan nan nan nan nan nan nan nan nan nan nan nan nan nan nan nan nan nan nan nan nan nan nan nan nan nan nan nan nan nan nan nan nan nan nan nan
nan nan nan nan nan nan nan nan nan nan nan nan nan nan nan nan nan nan nan nan nan nan nan nan nan nan nan nan nan nan nan nan nan nan nan nan nan nan nan nan nan nan nan nan nan nan nan nan nan nan nan nan nan nan nan nan nan nan nan nan nan nan nan nan nan nan nan nan nan nan nan nan nan nan nan nan nan nan nan nan nan nan nan nan nan
nan nan nan nan nan nan nan nan nan nan nan nan nan nan nan nan nan nan nan nan nan nan nan nan nan nan nan nan nan nan nan nan nan nan nan nan nan nan nan nan nan nan nan nan nan nan nan nan nan nan nan nan nan nan nan nan nan nan nan nan nan nan nan nan nan nan nan nan nan nan nan nan nan nan nan nan nan nan nan nan nan nan nan nan nan
nan nan nan nan nan nan nan nan nan nan nan nan nan nan nan nan nan nan nan nan nan nan nan nan nan nan nan nan nan nan nan nan nan nan nan nan nan nan nan nan nan nan nan nan nan nan nan nan nan nan nan nan nan nan nan nan nan nan nan nan nan nan nan nan nan nan nan nan nan nan nan nan nan nan nan nan nan nan nan nan nan nan nan nan nan
nan nan nan nan nan nan nan nan nan nan nan nan nan nan nan nan nan nan nan nan nan nan nan nan nan nan nan nan nan nan nan nan nan nan nan nan nan nan nan nan nan nan nan nan nan nan nan nan nan nan nan nan nan nan nan nan nan nan nan nan nan nan nan nan nan nan nan nan nan nan nan nan nan nan nan nan nan nan nan nan nan nan nan nan nan
nan nan nan nan nan nan nan nan nan nan nan nan nan nan nan nan nan nan nan nan nan nan nan nan nan nan nan nan nan nan nan nan nan nan nan nan nan nan nan nan nan nan nan nan nan nan nan nan nan nan nan nan nan nan nan nan nan nan nan nan nan nan nan nan nan nan nan nan nan nan nan nan nan nan nan nan nan nan nan nan nan nan nan nan nan
Wind_Direction
299 304 299 296 296 294 291 287 286 285 288 290 288 288 290 294 301 302 297 298 293 280 288 303 298 290 282 287 278 262 259 261 261 245 220 215 222 226 232 234 237 240 236 236 237 239 242 241 246 240 237 236 243 238 235 249 258 261 261 258 273 265 237 240 262 272 271 253 246 255 254 254 nan nan nan nan nan 245 211 202 318 137 180 165 172
289 298 300 298 298 299 294 290 287 287 281 283 285 288 289 293 301 295 292 291 286 294 306 304 291 293 288 286 269 246 244 249 244 234 219 212 216 223 229 233 237 241 230 226 232 238 241 240 242 243 240 239 237 232 229 243 253 257 259 249 236 280 267 274 287 276 242 281 285 270 255 248 239 nan nan nan nan 225 253 163 190 174 189 131 140
296 297 299 302 302 302 295 288 281 279 280 282 283 285 287 290 294 291 289 288 287 292 295 291 288 294 288 283 282 257 246 252 235 218 210 209 208 217 222 229 234 233 229 230 238 240 242 240 238 237 233 235 237 233 236 243 253 266 272 276 273 242 257 263 301 246 nan 262 nan nan nan nan nan 229 225 236 nan nan nan 224 188 186 175 133 122
305 302 305 306 308 305 296 290 288 281 281 281 283 286 284 286 289 289 291 291 291 293 293 280 276 275 270 276 279 253 240 246 237 225 213 207 202 208 213 223 225 228 236 233 237 244 246 243 239 235 232 226 240 240 241 243 245 244 236 245 272 273 266 273 278 244 nan nan nan nan nan nan nan nan 223 205 213 210 218 223 212 234 213 103 145
299 295 300 310 318 318 310 300 289 283 283 284 285 285 284 290 287 287 290 293 293 293 287 279 279 288 283 278 270 242 225 235 234 228 219 210 205 206 209 217 223 226 232 234 240 248 244 240 236 235 232 226 234 239 241 245 247 246 257 253 269 283 285 270 268 253 nan nan nan nan nan nan nan nan 229 nan nan nan 220 nan nan 248 259 183 192
292 306 311 315 321 320 309 297 295 293 292 287 284 285 282 281 283 283 283 287 289 289 285 282 287 293 293 289 282 254 245 242 246 240 226 216 211 211 213 217 220 222 225 232 239 241 237 232 227 232 231 229 233 238 237 236 239 246 256 259 257 269 283 285 272 267 304 nan nan nan nan nan nan nan nan nan nan nan nan 221 235 210 224 221 214
295 299 309 318 322 322 314 310 308 302 294 287 282 279 278 277 281 282 284 284 283 282 282 281 284 290 296 299 292 282 271 250 242 241 232 217 217 218 219 220 220 225 222 226 233 230 225 221 224 229 229 230 230 237 237 236 234 240 241 245 257 259 264 276 281 283 266 228 253 242 247 nan nan nan nan nan nan 212 225 229 219 212 207 220 nan
301 310 313 310 306 304 304 292 280 284 290 291 286 282 285 283 283 285 286 286 280 276 278 280 284 287 290 291 290 286 274 264 265 255 238 224 222 223 220 216 218 222 224 222 225 226 221 219 225 227 228 228 232 234 236 228 229 227 239 244 250 261 268 273 273 273 287 262 247 247 nan nan nan nan nan nan nan nan 237 225 220 220 nan 197 nan
282 292 294 288 278 270 269 269 264 262 273 292 292 291 289 290 291 291 294 292 285 280 278 282 284 288 290 285 284 289 274 261 267 264 250 238 232 225 217 207 213 221 227 227 224 225 224 226 228 227 229 228 229 230 228 229 232 235 237 242 253 259 263 264 269 275 268 270 260 247 nan nan nan nan nan nan nan 251 228 240 234 209 202 193 nan
255 255 255 257 265 269 275 276 268 268 273 286 292 295 295 296 297 297 299 297 292 290 289 297 297 289 290 291 296 284 267 251 272 284 271 254 248 245 224 211 215 223 224 223 224 224 225 226 228 231 232 232 230 231 230 229 227 232 239 244 251 259 249 261 269 266 264 nan 268 270 nan nan nan nan nan nan nan nan 261 285 249 246 230 191 nan
256 258 258 262 269 270 274 276 263 242 255 285 289 290 284 281 278 285 293 293 292 294 297 302 298 292 291 289 287 287 283 270 272 281 279 270 262 254 240 230 230 228 221 217 217 220 220 224 229 230 231 232 231 231 232 233 231 237 242 246 250 256 256 258 254 255 258 263 265 274 nan nan nan nan nan nan nan nan nan nan nan nan nan nan nan
251 253 254 257 261 262 266 267 264 256 255 260 274 272 271 273 278 283 286 288 281 283 289 292 291 289 284 284 284 286 284 275 280 283 288 289 272 260 249 237 226 211 215 215 212 213 220 222 224 229 230 230 231 229 231 234 236 240 243 248 251 249 250 260 258 257 255 259 262 268 276 nan nan nan nan nan nan nan nan nan nan nan nan nan nan
247 250 254 257 262 266 267 268 269 275 276 266 264 291 308 290 283 288 291 286 277 271 276 278 278 281 282 278 271 271 279 269 264 264 277 285 274 266 259 255 236 217 206 216 211 213 216 219 221 218 220 227 226 229 227 235 239 244 247 247 251 253 253 257 258 260 264 264 267 261 269 nan nan nan nan nan nan nan nan nan nan nan nan nan nan
249 252 256 260 263 266 270 274 273 273 274 280 295 319 312 280 265 274 277 275 275 272 269 267 268 267 265 263 261 261 270 258 248 245 244 256 268 267 259 254 239 229 225 222 221 218 215 218 222 227 226 228 229 231 235 241 245 247 249 251 253 252 249 251 253 252 253 256 257 266 267 276 271 271 nan nan nan nan nan nan nan nan nan nan nan
247 248 250 253 260 265 271 277 279 274 273 284 297 291 274 265 248 243 253 258 259 264 262 260 255 251 247 243 244 243 250 240 217 227 232 236 249 252 245 246 242 232 232 229 227 222 219 221 222 225 225 230 233 236 240 244 247 250 251 255 252 249 249 251 250 253 255 253 254 267 272 270 271 273 276 275 nan nan nan nan nan nan nan nan nan
243 243 243 243 247 255 262 271 278 281 282 280 278 275 274 273 265 248 241 239 236 239 240 243 241 237 237 238 235 239 254 288 273 222 226 226 238 240 237 236 233 232 230 235 227 224 223 226 227 227 228 233 237 242 243 244 247 253 255 256 255 245 250 252 254 256 256 256 256 254 263 271 271 275 274 273 271 nan nan nan nan nan nan nan nan
250 248 246 242 244 247 255 260 271 279 281 288 285 278 273 274 268 260 254 248 240 239 243 243 236 229 225 224 225 231 250 286 307 288 254 231 231 230 231 230 231 238 240 234 228 224 229 233 234 234 235 239 241 245 246 246 246 251 254 255 255 248 252 254 255 258 254 254 249 256 264 268 270 268 267 nan nan nan nan nan nan nan nan nan nan
256 256 254 250 248 249 252 255 259 265 272 272 270 273 276 280 278 271 267 265 254 249 253 256 257 253 236 221 216 221 232 260 284 296 273 262 244 235 232 233 236 236 239 229 229 232 235 239 241 240 241 244 247 247 248 249 249 248 246 247 249 250 250 250 256 258 255 250 247 251 253 264 263 268 271 265 264 262 260 258 253 nan nan nan nan
257 258 258 252 252 249 250 253 249 253 256 260 267 268 269 277 284 281 271 262 259 250 249 259 264 268 270 250 231 225 224 241 256 278 277 274 269 257 248 246 244 240 236 232 234 238 240 242 244 243 245 247 247 249 251 253 254 250 248 245 240 240 251 257 256 258 252 250 249 255 255 263 264 270 266 260 255 255 253 253 nan nan nan nan nan
260 260 257 253 248 240 237 243 243 237 238 241 246 255 262 276 285 277 255 250 241 230 228 218 217 232 239 230 232 233 228 235 230 253 305 285 271 265 256 248 251 245 239 236 238 239 241 245 245 249 247 247 248 250 251 255 256 257 258 255 250 253 258 261 257 250 250 249 252 255 257 264 264 266 264 257 255 251 251 250 nan nan nan nan nan
258 256 250 243 235 227 226 235 237 233 233 235 237 238 239 258 268 255 252 255 233 222 219 217 224 231 235 226 233 240 237 246 247 249 251 234 218 222 241 252 249 245 240 240 242 242 242 246 248 249 250 247 250 250 250 252 253 255 259 264 265 266 265 259 257 252 248 251 254 254 256 256 262 269 268 258 252 250 247 243 240 240 241 nan nan
251 248 244 240 231 224 231 238 237 233 228 227 233 240 238 237 253 295 293 280 244 222 219 211 221 249 254 235 235 238 239 241 240 244 247 236 220 217 237 255 253 240 238 242 245 241 242 246 246 249 248 248 249 253 252 252 254 254 253 255 261 263 263 261 258 255 250 250 251 253 255 256 262 269 265 259 251 245 239 238 237 240 234 nan nan
237 233 233 234 242 240 240 240 237 232 230 230 239 244 245 238 229 223 228 246 248 202 226 229 218 229 255 245 243 244 243 246 245 247 259 247 229 221 236 254 248 236 235 243 244 246 246 245 246 247 247 247 249 254 254 254 255 256 256 254 258 261 263 263 260 256 252 248 249 252 255 255 258 260 261 260 249 239 231 222 220 220 228 nan nan
nan 234 231 228 228 236 241 239 241 237 233 238 248 248 248 248 247 249 226 202 187 195 223 242 234 227 233 239 242 243 247 247 246 246 257 244 229 217 226 245 241 234 243 245 248 250 249 246 248 246 248 249 252 255 258 256 259 258 258 259 257 258 260 258 256 250 247 247 249 249 251 255 259 261 260 258 251 238 235 225 222 219 219 223 nan
237 nan nan nan nan nan nan nan 237 235 234 236 239 245 249 248 251 247 230 216 213 209 221 242 244 250 255 240 237 239 232 233 238 246 260 254 244 223 215 234 239 237 243 249 248 250 249 248 248 250 251 nan nan nan 259 255 254 nan 259 259 260 260 259 256 254 250 250 249 249 249 250 254 259 262 256 255 249 245 237 236 229 226 230 nan nan
nan nan nan nan 233 nan nan nan nan nan nan 231 232 237 241 244 247 244 236 223 224 229 254 284 297 276 269 270 260 254 244 240 244 249 260 261 247 235 224 221 239 239 238 243 250 246 247 246 248 249 nan nan nan nan nan nan nan nan nan nan nan nan nan nan 252 249 249 249 250 248 249 254 258 261 260 255 253 250 243 240 239 240 247 237 nan
nan nan nan nan nan nan nan nan nan nan nan nan nan 234 235 237 233 232 236 236 240 248 284 291 282 292 282 273 270 280 291 263 251 252 253 252 247 242 233 225 222 235 239 243 245 243 237 241 nan nan nan nan nan nan nan nan nan nan nan nan nan nan nan nan nan nan nan 248 249 250 250 252 256 258 259 259 257 252 251 244 243 249 nan nan nan
nan nan nan nan nan nan nan nan nan nan nan nan nan nan nan nan nan 230 233 240 nan nan 276 279 275 280 276 274 273 281 283 269 261 252 254 251 247 247 240 224 222 230 241 244 246 244 237 236 nan nan nan nan nan nan nan nan nan nan nan nan nan nan nan nan nan nan nan 252 252 253 253 252 252 254 257 255 256 260 257 254 250 251 259 nan nan
nan nan nan nan nan nan nan nan nan nan nan nan nan 245 nan nan nan nan nan nan nan 259 256 265 278 275 278 283 282 274 268 273 268 256 250 248 241 243 238 231 231 241 240 243 247 249 244 nan nan nan nan nan nan nan nan nan nan nan nan nan nan nan nan nan 253 253 253 252 251 249 251 252 253 257 256 256 259 265 265 263 255 256 257 nan nan
nan nan nan nan nan nan nan nan nan nan nan nan nan nan nan nan nan nan nan nan nan 253 257 257 255 267 279 281 281 279 274 271 268 261 256 249 237 237 237 nan 235 246 248 248 nan 244 nan nan nan nan nan nan nan nan nan nan nan nan nan nan nan nan nan nan 257 255 252 253 252 nan 246 248 249 250 249 247 263 274 266 265 262 nan 263 nan nan
nan nan nan nan nan nan nan nan nan nan nan nan nan nan nan nan nan nan nan nan nan nan nan nan nan 249 260 278 277 280 270 271 269 264 254 252 242 234 nan nan 241 245 250 nan nan nan nan nan nan nan nan nan nan nan nan nan nan nan nan nan nan nan nan nan nan 260 261 257 249 246 245 242 242 242 243 241 235 244 nan nan nan nan nan nan nan
nan nan nan nan nan nan nan nan nan nan nan nan nan nan nan nan nan nan nan nan nan nan nan nan nan nan nan 257 274 nan 269 265 267 264 258 251 247 nan nan nan 240 244 nan nan nan nan nan nan nan nan nan nan nan nan nan nan nan nan nan nan nan nan nan nan nan 258 253 252 251 247 241 239 239 240 246 nan nan nan nan nan nan nan nan nan nan
nan nan nan nan nan nan nan nan nan nan nan nan nan nan nan nan nan nan nan nan nan nan 254 246 247 nan 247 239 nan nan 275 269 266 262 257 253 247 236 nan nan nan nan nan nan nan nan nan nan nan nan nan nan nan nan nan nan nan nan nan nan nan nan nan nan nan nan nan 251 249 247 245 241 241 241 244 246 nan nan nan nan nan nan nan nan nan
nan nan nan nan nan nan nan nan nan nan nan nan nan nan nan nan nan nan nan nan nan nan nan 252 246 nan nan nan nan nan nan nan 271 265 259 253 243 236 nan nan nan nan nan nan nan nan nan nan nan nan nan nan nan nan nan nan nan nan nan nan nan nan nan nan nan nan nan nan nan nan nan nan 250 250 250 251 251 252 250 nan nan nan nan nan nan
nan nan nan nan nan nan nan nan nan nan nan nan nan nan nan nan nan nan nan nan nan nan nan 255 251 245 nan nan nan nan nan 265 265 257 252 247 236 nan nan nan nan nan nan nan nan nan nan nan nan nan nan nan nan nan nan nan nan nan nan nan nan nan nan nan nan nan nan nan nan nan nan nan nan nan nan nan nan 255 254 nan nan nan nan nan nan
nan nan nan nan nan nan nan nan nan nan nan nan nan nan nan nan nan nan nan nan nan nan nan nan 255 248 nan nan nan nan nan 243 251 242 239 237 nan nan nan nan nan nan nan nan nan nan nan nan nan nan nan nan nan nan nan nan nan nan nan nan nan nan nan nan nan nan nan nan nan nan nan nan nan nan nan nan nan nan nan 251 250 nan nan nan nan
nan nan nan nan nan nan nan nan nan nan nan nan nan nan nan nan nan nan nan nan nan nan nan nan nan nan nan nan nan nan nan 224 246 244 236 nan nan nan nan nan nan nan nan nan nan nan nan nan nan nan nan nan nan nan nan nan nan nan nan nan nan nan nan nan nan nan nan nan nan nan nan nan nan nan nan nan nan nan nan nan nan nan nan nan nan
nan nan nan nan nan nan nan nan nan nan nan nan nan nan nan nan nan nan nan nan nan nan nan nan nan nan nan nan nan nan nan nan nan nan nan nan nan nan nan nan nan nan nan nan nan nan nan nan nan nan nan nan nan nan nan nan nan nan nan nan nan nan nan nan nan nan nan nan nan nan nan nan nan nan nan nan nan nan nan nan nan nan nan nan nan
nan nan nan nan nan nan nan nan nan nan nan nan nan nan nan nan nan nan nan nan nan nan nan nan nan nan nan nan nan nan nan nan nan nan nan nan nan nan nan nan nan nan nan nan nan nan nan nan nan nan nan nan nan nan nan nan nan nan nan nan nan nan nan nan nan nan nan nan nan nan nan nan nan nan nan nan nan nan nan nan nan nan nan nan nan
nan nan nan nan nan nan nan nan nan nan nan nan nan nan nan nan nan nan nan nan nan nan nan nan nan nan nan nan nan nan nan nan nan nan nan nan nan nan nan nan nan nan nan nan nan nan nan nan nan nan nan nan nan nan nan nan nan nan nan nan nan nan nan nan nan nan nan nan nan nan nan nan nan nan nan nan nan nan nan nan nan nan nan nan nan
nan nan nan nan nan nan nan nan nan nan nan nan nan nan nan nan nan nan nan nan nan nan nan nan nan nan nan nan nan nan nan nan nan nan nan nan nan nan nan nan nan nan nan nan nan nan nan nan nan nan nan nan nan nan nan nan nan nan nan nan nan nan nan nan nan nan nan nan nan nan nan nan nan nan nan nan nan nan nan nan nan nan nan nan nan
nan nan nan nan nan nan nan nan nan nan nan nan nan nan nan nan nan nan nan nan nan nan nan nan nan nan nan nan nan nan nan nan nan nan nan nan nan nan nan nan nan nan nan nan nan nan nan nan nan nan nan nan nan nan nan nan nan nan nan nan nan nan nan nan nan nan nan nan nan nan nan nan nan nan nan nan nan nan nan nan nan nan nan nan nan
nan nan nan nan nan nan nan nan nan nan nan nan nan nan nan nan nan nan nan nan nan nan nan nan nan nan nan nan nan nan nan nan nan nan nan nan nan nan nan nan nan nan nan nan nan nan nan nan nan nan nan nan nan nan nan nan nan nan nan nan nan nan nan nan nan nan nan nan nan nan nan nan nan nan nan nan nan nan nan nan nan nan nan nan nan
nan nan nan nan nan nan nan nan nan nan nan nan nan nan nan nan nan nan nan nan nan nan nan nan nan nan nan nan nan nan nan nan nan nan nan nan nan nan nan nan nan nan nan nan nan nan nan nan nan nan nan nan nan nan nan nan nan nan nan nan nan nan nan nan nan nan nan nan nan nan nan nan nan nan nan nan nan nan nan nan nan nan nan nan nan
nan nan nan nan nan nan nan nan nan nan nan nan nan nan nan nan nan nan nan nan nan nan nan nan nan nan nan nan nan nan nan nan nan nan nan nan nan nan nan nan nan nan nan nan nan nan nan nan nan nan nan nan nan nan nan nan nan nan nan nan nan nan nan nan nan nan nan nan nan nan nan nan nan nan nan nan nan nan nan nan nan nan nan nan nan
nan nan nan nan nan nan nan nan nan nan nan nan nan nan nan nan nan nan nan nan nan nan nan nan nan nan nan nan nan nan nan nan nan nan nan nan nan nan nan nan nan nan nan nan nan nan nan nan nan nan nan nan nan nan nan nan nan nan nan nan nan nan nan nan nan nan nan nan nan nan nan nan nan nan nan nan nan nan nan nan nan nan nan nan nan
nan nan nan nan nan nan nan nan nan nan nan nan nan nan nan nan nan nan nan nan nan nan nan nan nan nan nan nan nan nan nan nan nan nan nan nan nan nan nan nan nan nan nan nan nan nan nan nan nan nan nan nan nan nan nan nan nan nan nan nan nan nan nan nan nan nan nan nan nan nan nan nan nan nan nan nan nan nan nan nan nan nan nan nan nan
nan nan nan nan nan nan nan nan nan nan nan nan nan nan nan nan nan nan nan nan nan nan nan nan nan nan nan nan nan nan nan nan nan nan nan nan nan nan nan nan nan nan nan nan nan nan nan nan nan nan nan nan nan nan nan nan nan nan nan nan nan nan nan nan nan nan nan nan nan nan nan nan nan nan nan nan nan nan nan nan nan nan nan nan nan
nan nan nan nan nan nan nan nan nan nan nan nan nan nan nan nan nan nan nan nan nan nan nan nan nan nan nan nan nan nan nan nan nan nan nan nan nan nan nan nan nan nan nan nan nan nan nan nan nan nan nan nan nan nan nan nan nan nan nan nan nan nan nan nan nan nan nan nan nan nan nan nan nan nan nan nan nan nan nan nan nan nan nan nan nan
nan nan nan nan nan nan nan nan nan nan nan nan nan nan nan nan nan nan nan nan nan nan nan nan nan nan nan nan nan nan nan nan nan nan nan nan nan nan nan nan nan nan nan nan nan nan nan nan nan nan nan nan nan nan nan nan nan nan nan nan nan nan nan nan nan nan nan nan nan nan nan nan nan nan nan nan nan nan nan nan nan nan nan nan nan
nan nan nan nan nan nan nan nan nan nan nan nan nan nan nan nan nan nan nan nan nan nan nan nan nan nan nan nan nan nan nan nan nan nan nan nan nan nan nan nan nan nan nan nan nan nan nan nan nan nan nan nan nan nan nan nan nan nan nan nan nan nan nan nan nan nan nan nan nan nan nan nan nan nan nan nan nan nan nan nan nan nan nan nan nan